Time,TemperatureF,DewpointF,PressureIn,WindDirection,WindDirectionDegrees,WindSpeedMPH,WindSpeedGustMPH,Humidity,HourlyPrecipIn,Conditions,Clouds,dailyrainin,SoftwareType,DateUTC
2015-05-27 00:02:00,67.5,66.2,30.02,SSW,203,0.0,2.0,96,0.00,,,0.00,meteobridge,2015-05-27 04:02:00,
2015-05-27 00:07:00,67.5,66.2,30.02,SSE,155,0.9,2.0,96,0.00,,,0.00,meteobridge,2015-05-27 04:07:00,
2015-05-27 00:12:00,67.3,66.0,30.02,SE,126,0.0,3.0,96,0.00,,,0.00,meteobridge,2015-05-27 04:12:00,
2015-05-27 00:17:00,67.3,66.0,30.02,SE,139,2.0,2.0,96,0.00,,,0.00,meteobridge,2015-05-27 04:17:00,
2015-05-27 00:22:00,67.3,66.0,30.03,SSE,155,0.9,4.0,96,0.00,,,0.00,meteobridge,2015-05-27 04:22:00,
2015-05-27 00:27:00,67.3,66.0,30.03,SSE,147,0.0,1.0,96,0.00,,,0.00,meteobridge,2015-05-27 04:27:00,
2015-05-27 00:32:00,67.3,66.0,30.03,SE,139,0.9,2.0,96,0.00,,,0.00,meteobridge,2015-05-27 04:32:00,
2015-05-27 00:37:00,67.3,66.0,30.03,SE,145,0.0,1.0,96,0.00,,,0.00,meteobridge,2015-05-27 04:37:00,
2015-05-27 00:43:00,67.3,66.4,30.03,ESE,103,0.0,4.0,97,0.00,,,0.00,meteobridge,2015-05-27 04:43:00,
2015-05-27 00:48:00,67.3,66.4,30.03,SSE,156,0.9,3.0,97,0.00,,,0.00,meteobridge,2015-05-27 04:48:00,
2015-05-27 00:53:00,67.3,66.4,30.03,SSE,158,0.9,2.0,97,0.00,,,0.00,meteobridge,2015-05-27 04:53:00,
2015-05-27 00:58:00,67.3,66.4,30.03,SE,125,2.0,3.0,97,0.00,,,0.00,meteobridge,2015-05-27 04:58:00,
2015-05-27 01:03:00,67.3,66.4,30.03,SE,140,0.9,3.0,97,0.00,,,0.00,meteobridge,2015-05-27 05:03:00,
2015-05-27 01:08:00,67.5,66.6,30.04,SSE,151,0.9,2.0,97,0.00,,,0.00,meteobridge,2015-05-27 05:08:00,
2015-05-27 01:13:00,67.5,66.6,30.04,South,178,0.9,4.0,97,0.00,,,0.00,meteobridge,2015-05-27 05:13:00,
2015-05-27 01:18:00,67.5,66.6,30.03,SSE,165,0.9,4.0,97,0.00,,,0.00,meteobridge,2015-05-27 05:18:00,
2015-05-27 01:23:00,67.5,66.6,30.04,SSE,154,2.0,3.0,97,0.00,,,0.00,meteobridge,2015-05-27 05:23:00,
2015-05-27 01:28:00,67.5,66.6,30.04,WSW,257,0.9,4.0,97,0.00,,,0.00,meteobridge,2015-05-27 05:28:00,
2015-05-27 01:33:00,67.5,66.6,30.04,SSE,155,0.9,2.0,97,0.00,,,0.00,meteobridge,2015-05-27 05:33:00,
2015-05-27 01:38:00,67.5,66.6,30.04,SSE,160,2.0,4.0,97,0.00,,,0.00,meteobridge,2015-05-27 05:38:00,
2015-05-27 01:43:00,67.5,66.6,30.04,SE,138,2.0,4.0,97,0.00,,,0.00,meteobridge,2015-05-27 05:43:00,
2015-05-27 01:48:00,67.5,66.6,30.04,SE,146,0.0,3.0,97,0.00,,,0.00,meteobridge,2015-05-27 05:48:00,
2015-05-27 01:53:00,67.6,66.7,30.04,SE,129,2.9,4.0,97,0.00,,,0.00,meteobridge,2015-05-27 05:53:00,
2015-05-27 01:58:00,67.6,66.7,30.04,SSE,165,0.9,4.0,97,0.00,,,0.00,meteobridge,2015-05-27 05:58:00,
2015-05-27 02:03:00,67.6,66.7,30.04,SSE,147,2.0,3.0,97,0.00,,,0.00,meteobridge,2015-05-27 06:03:00,
2015-05-27 02:08:00,67.5,66.6,30.04,ESE,122,2.9,3.0,97,0.00,,,0.00,meteobridge,2015-05-27 06:08:00,
2015-05-27 02:13:00,67.5,66.6,30.04,SE,127,0.0,1.0,97,0.00,,,0.00,meteobridge,2015-05-27 06:13:00,
2015-05-27 02:18:00,67.5,66.6,30.04,SSE,160,0.0,6.0,97,0.00,,,0.00,meteobridge,2015-05-27 06:18:00,
2015-05-27 02:23:00,67.5,66.6,30.04,SSE,150,0.9,3.0,97,0.00,,,0.00,meteobridge,2015-05-27 06:23:00,
2015-05-27 02:28:00,67.5,66.6,30.03,SSE,155,2.0,3.0,97,0.00,,,0.00,meteobridge,2015-05-27 06:28:00,
2015-05-27 02:33:00,67.5,66.6,30.03,SSE,167,0.9,2.0,97,0.00,,,0.00,meteobridge,2015-05-27 06:33:00,
2015-05-27 02:38:00,67.3,66.4,30.03,SE,129,0.9,5.0,97,0.00,,,0.00,meteobridge,2015-05-27 06:38:00,
2015-05-27 02:43:00,67.3,66.4,30.03,SE,142,0.0,2.0,97,0.00,,,0.00,meteobridge,2015-05-27 06:43:00,
2015-05-27 02:48:00,67.3,66.7,30.03,SE,136,0.9,2.0,98,0.00,,,0.00,meteobridge,2015-05-27 06:48:00,
2015-05-27 02:58:00,67.3,66.7,30.03,SSE,163,0.0,1.0,98,0.00,,,0.00,meteobridge,2015-05-27 06:58:00,
2015-05-27 03:04:00,67.3,66.7,30.03,SE,135,0.9,2.0,98,0.00,,,0.00,meteobridge,2015-05-27 07:04:00,
2015-05-27 03:09:00,67.1,66.6,30.03,SE,146,0.0,1.0,98,0.00,,,0.00,meteobridge,2015-05-27 07:09:00,
2015-05-27 03:14:00,66.9,66.4,30.03,SE,141,0.0,1.0,98,0.00,,,0.00,meteobridge,2015-05-27 07:14:00,
2015-05-27 03:19:00,66.9,66.4,30.03,South,181,2.0,3.0,98,0.00,,,0.00,meteobridge,2015-05-27 07:19:00,
2015-05-27 03:24:00,66.9,66.4,30.03,SSE,168,0.9,1.0,98,0.00,,,0.00,meteobridge,2015-05-27 07:24:00,
2015-05-27 03:29:00,66.7,66.2,30.02,SE,142,0.9,1.0,98,0.00,,,0.00,meteobridge,2015-05-27 07:29:00,
2015-05-27 03:34:00,66.7,66.2,30.02,SSE,150,0.0,1.0,98,0.00,,,0.00,meteobridge,2015-05-27 07:34:00,
2015-05-27 03:39:00,66.6,66.0,30.02,SSE,147,0.9,1.0,98,0.00,,,0.00,meteobridge,2015-05-27 07:39:00,
2015-05-27 03:44:00,66.6,66.0,30.02,South,181,0.0,1.0,98,0.00,,,0.00,meteobridge,2015-05-27 07:44:00,
2015-05-27 03:49:00,66.6,66.0,30.03,SSE,155,2.0,2.0,98,0.00,,,0.00,meteobridge,2015-05-27 07:49:00,
2015-05-27 03:54:00,66.6,66.0,30.03,SE,124,2.0,3.0,98,0.00,,,0.00,meteobridge,2015-05-27 07:54:00,
2015-05-27 03:59:00,66.6,66.0,30.03,South,169,0.0,2.0,98,0.00,,,0.00,meteobridge,2015-05-27 07:59:00,
2015-05-27 04:04:00,66.6,66.2,30.03,SE,138,0.9,3.0,99,0.00,,,0.00,meteobridge,2015-05-27 08:04:00,
2015-05-27 04:09:00,66.6,66.2,30.03,SSE,153,2.0,4.0,99,0.00,,,0.00,meteobridge,2015-05-27 08:09:00,
2015-05-27 04:14:00,66.6,66.2,30.03,SSE,153,0.9,3.0,99,0.00,,,0.00,meteobridge,2015-05-27 08:14:00,
2015-05-27 04:19:00,66.6,66.2,30.03,SSE,148,2.0,4.0,99,0.00,,,0.00,meteobridge,2015-05-27 08:19:00,
2015-05-27 04:24:00,66.6,66.2,30.03,ESE,117,2.9,3.0,99,0.00,,,0.00,meteobridge,2015-05-27 08:24:00,
2015-05-27 04:29:00,66.6,66.2,30.03,SE,143,0.9,2.0,99,0.00,,,0.00,meteobridge,2015-05-27 08:29:00,
2015-05-27 04:34:00,66.6,66.2,30.03,SSE,151,0.0,2.0,99,0.00,,,0.00,meteobridge,2015-05-27 08:34:00,
2015-05-27 04:39:00,66.4,66.0,30.03,SE,142,0.9,2.0,99,0.00,,,0.00,meteobridge,2015-05-27 08:39:00,
2015-05-27 04:44:00,66.4,66.0,30.04,SSE,149,0.0,0.0,99,0.00,,,0.00,meteobridge,2015-05-27 08:44:00,
2015-05-27 04:49:00,66.2,65.8,30.03,SSE,156,0.9,1.0,99,0.00,,,0.00,meteobridge,2015-05-27 08:49:00,
2015-05-27 04:54:00,66.0,65.7,30.03,SSE,152,0.0,1.0,99,0.00,,,0.00,meteobridge,2015-05-27 08:54:00,
2015-05-27 04:59:00,66.0,65.7,30.04,SSE,148,0.9,3.0,99,0.00,,,0.00,meteobridge,2015-05-27 08:59:00,
2015-05-27 05:04:00,66.0,65.7,30.04,ESE,120,2.0,2.0,99,0.00,,,0.00,meteobridge,2015-05-27 09:04:00,
2015-05-27 05:09:00,65.8,65.5,30.04,SSE,151,0.0,1.0,99,0.00,,,0.00,meteobridge,2015-05-27 09:09:00,
2015-05-27 05:14:00,65.8,65.5,30.04,SSE,154,0.9,1.0,99,0.00,,,0.00,meteobridge,2015-05-27 09:14:00,
2015-05-27 05:19:00,65.8,65.5,30.05,SE,131,0.9,2.0,99,0.00,,,0.00,meteobridge,2015-05-27 09:19:00,
2015-05-27 05:24:00,65.8,65.5,30.05,SE,125,0.0,1.0,99,0.00,,,0.00,meteobridge,2015-05-27 09:24:00,
2015-05-27 05:29:00,65.7,65.3,30.05,SE,141,0.0,1.0,99,0.00,,,0.00,meteobridge,2015-05-27 09:29:00,
2015-05-27 05:34:00,65.7,65.3,30.05,SE,139,0.9,2.0,99,0.00,,,0.00,meteobridge,2015-05-27 09:34:00,
2015-05-27 05:39:00,65.7,65.3,30.05,SE,139,0.9,1.0,99,0.00,,,0.00,meteobridge,2015-05-27 09:39:00,
2015-05-27 05:44:00,65.7,65.3,30.06,ESE,108,2.0,3.0,99,0.00,,,0.00,meteobridge,2015-05-27 09:44:00,
2015-05-27 05:49:00,65.7,65.3,30.06,SSE,155,0.0,2.0,99,0.00,,,0.00,meteobridge,2015-05-27 09:49:00,
2015-05-27 05:54:00,65.7,65.3,30.06,SSE,162,0.9,3.0,99,0.00,,,0.00,meteobridge,2015-05-27 09:54:00,
2015-05-27 05:59:00,65.5,65.1,30.06,SSE,158,2.0,3.0,99,0.00,,,0.00,meteobridge,2015-05-27 09:59:00,
2015-05-27 06:05:00,65.5,65.1,30.06,SSE,147,0.0,2.0,99,0.00,,,0.00,meteobridge,2015-05-27 10:05:00,
2015-05-27 06:10:00,65.5,65.1,30.07,SE,136,2.0,3.0,99,0.00,,,0.00,meteobridge,2015-05-27 10:10:00,
2015-05-27 06:15:00,65.5,65.1,30.06,SSW,192,2.0,3.0,99,0.00,,,0.00,meteobridge,2015-05-27 10:15:00,
2015-05-27 06:20:00,65.5,65.1,30.06,SSE,153,0.9,2.0,99,0.00,,,0.00,meteobridge,2015-05-27 10:20:00,
2015-05-27 06:25:00,65.5,65.1,30.07,SSE,153,0.0,2.0,99,0.00,,,0.00,meteobridge,2015-05-27 10:25:00,
2015-05-27 06:30:00,65.3,64.9,30.07,SE,135,0.0,2.0,99,0.00,,,0.00,meteobridge,2015-05-27 10:30:00,
2015-05-27 06:35:00,65.1,64.8,30.07,SE,144,0.0,0.0,99,0.00,,,0.00,meteobridge,2015-05-27 10:35:00,
2015-05-27 06:40:00,65.1,64.8,30.08,SE,135,0.0,2.0,99,0.00,,,0.00,meteobridge,2015-05-27 10:40:00,
2015-05-27 06:45:00,65.1,64.8,30.08,ESE,113,2.0,2.0,99,0.00,,,0.00,meteobridge,2015-05-27 10:45:00,
2015-05-27 06:50:00,65.3,64.9,30.08,SE,131,0.0,1.0,99,0.00,,,0.00,meteobridge,2015-05-27 10:50:00,
2015-05-27 06:55:00,65.3,64.9,30.09,SE,135,0.0,1.0,99,0.00,,,0.00,meteobridge,2015-05-27 10:55:00,
2015-05-27 07:00:00,65.3,64.9,30.09,SSE,158,0.0,1.0,99,0.00,,,0.00,meteobridge,2015-05-27 11:00:00,
2015-05-27 07:05:00,65.5,65.1,30.09,SE,143,0.0,2.0,99,0.00,,,0.00,meteobridge,2015-05-27 11:05:00,
2015-05-27 07:10:00,65.5,65.1,30.09,SSE,165,0.0,2.0,99,0.00,,,0.00,meteobridge,2015-05-27 11:10:00,
2015-05-27 07:15:00,65.7,65.3,30.09,SSE,150,0.0,2.0,99,0.00,,,0.00,meteobridge,2015-05-27 11:15:00,
2015-05-27 07:20:00,65.8,65.5,30.09,SE,136,0.9,2.0,99,0.00,,,0.00,meteobridge,2015-05-27 11:20:00,
2015-05-27 07:25:00,65.8,65.3,30.09,SSE,149,0.9,2.0,98,0.00,,,0.00,meteobridge,2015-05-27 11:25:00,
2015-05-27 07:30:00,66.0,65.5,30.09,SE,139,2.0,4.0,98,0.00,,,0.00,meteobridge,2015-05-27 11:30:00,
2015-05-27 07:35:00,66.0,65.5,30.09,SE,146,0.0,2.0,98,0.00,,,0.00,meteobridge,2015-05-27 11:35:00,
2015-05-27 07:40:00,66.2,65.7,30.10,SE,141,0.9,2.0,98,0.00,,,0.00,meteobridge,2015-05-27 11:40:00,
2015-05-27 07:45:00,66.4,65.8,30.10,SE,124,0.0,2.0,98,0.00,,,0.00,meteobridge,2015-05-27 11:45:00,
2015-05-27 07:50:00,66.6,66.0,30.10,SE,131,0.0,2.0,98,0.00,,,0.00,meteobridge,2015-05-27 11:50:00,
2015-05-27 07:55:00,66.7,65.8,30.09,SSE,157,0.9,2.0,97,0.00,,,0.00,meteobridge,2015-05-27 11:55:00,
2015-05-27 08:00:00,66.9,66.0,30.09,SE,134,0.9,3.0,97,0.00,,,0.00,meteobridge,2015-05-27 12:00:00,
2015-05-27 08:05:00,66.9,65.7,30.09,SE,139,0.0,2.0,96,0.00,,,0.00,meteobridge,2015-05-27 12:05:00,
2015-05-27 08:10:00,67.3,66.0,30.10,SE,138,0.0,1.0,96,0.00,,,0.00,meteobridge,2015-05-27 12:10:00,
2015-05-27 08:16:00,67.5,66.0,30.10,SSW,200,0.0,2.0,95,0.00,,,0.00,meteobridge,2015-05-27 12:16:00,
2015-05-27 08:21:00,67.8,66.4,30.09,SSE,151,0.9,3.0,95,0.00,,,0.00,meteobridge,2015-05-27 12:21:00,
2015-05-27 08:26:00,68.0,66.2,30.09,SE,142,0.9,2.0,94,0.00,,,0.00,meteobridge,2015-05-27 12:26:00,
2015-05-27 08:31:00,68.2,66.4,30.09,SE,141,0.9,1.0,94,0.00,,,0.00,meteobridge,2015-05-27 12:31:00,
2015-05-27 08:36:00,68.4,66.0,30.10,SE,141,0.9,2.0,92,0.00,,,0.00,meteobridge,2015-05-27 12:36:00,
2015-05-27 08:41:00,68.7,66.6,30.10,SSE,164,0.9,2.0,93,0.00,,,0.00,meteobridge,2015-05-27 12:41:00,
2015-05-27 08:46:00,68.9,66.6,30.10,SE,136,0.9,2.0,92,0.00,,,0.00,meteobridge,2015-05-27 12:46:00,
2015-05-27 08:51:00,69.1,66.4,30.10,East,98,2.9,4.0,91,0.00,,,0.00,meteobridge,2015-05-27 12:51:00,
2015-05-27 08:56:00,69.3,66.6,30.11,SE,124,2.9,8.0,91,0.00,,,0.00,meteobridge,2015-05-27 12:56:00,
2015-05-27 09:01:00,69.6,66.2,30.11,SE,143,0.9,4.0,89,0.00,,,0.00,meteobridge,2015-05-27 13:01:00,
2015-05-27 09:06:00,70.2,67.1,30.11,ESE,120,2.0,2.0,90,0.00,,,0.00,meteobridge,2015-05-27 13:06:00,
2015-05-27 09:11:00,70.5,66.7,30.12,SSE,153,0.9,3.0,88,0.00,,,0.00,meteobridge,2015-05-27 13:11:00,
2015-05-27 09:16:00,71.2,67.1,30.11,SSE,151,0.9,2.0,87,0.00,,,0.00,meteobridge,2015-05-27 13:16:00,
2015-05-27 09:21:00,71.8,67.1,30.11,SE,131,0.9,5.0,85,0.00,,,0.00,meteobridge,2015-05-27 13:21:00,
2015-05-27 09:26:00,72.3,67.6,30.12,East,86,0.0,2.0,85,0.00,,,0.00,meteobridge,2015-05-27 13:26:00,
2015-05-27 09:31:00,73.0,67.3,30.12,SE,126,2.0,4.0,82,0.00,,,0.00,meteobridge,2015-05-27 13:31:00,
2015-05-27 09:36:00,73.6,67.5,30.11,SSE,164,2.9,6.0,81,0.00,,,0.00,meteobridge,2015-05-27 13:36:00,
2015-05-27 09:41:00,73.6,67.5,30.11,SE,134,2.0,4.0,81,0.00,,,0.00,meteobridge,2015-05-27 13:41:00,
2015-05-27 09:46:00,73.9,67.8,30.11,SSE,150,0.9,4.0,81,0.00,,,0.00,meteobridge,2015-05-27 13:46:00,
2015-05-27 09:51:00,74.5,67.5,30.11,SSE,153,2.9,4.0,79,0.00,,,0.00,meteobridge,2015-05-27 13:51:00,
2015-05-27 09:56:00,74.5,67.5,30.11,SW,215,2.0,4.0,79,0.00,,,0.00,meteobridge,2015-05-27 13:56:00,
2015-05-27 10:01:00,74.3,67.6,30.11,SSE,147,2.0,5.0,80,0.00,,,0.00,meteobridge,2015-05-27 14:01:00,
2015-05-27 10:11:00,74.7,67.6,30.11,SSE,158,0.9,4.0,79,0.00,,,0.00,meteobridge,2015-05-27 14:11:00,
2015-05-27 10:16:00,74.8,67.5,30.10,South,189,2.0,4.0,78,0.00,,,0.00,meteobridge,2015-05-27 14:16:00,
2015-05-27 10:21:00,74.5,67.8,30.10,SE,137,2.9,3.0,80,0.00,,,0.00,meteobridge,2015-05-27 14:21:00,
2015-05-27 10:26:00,74.7,67.3,30.10,SE,131,2.9,4.0,78,0.00,,,0.00,meteobridge,2015-05-27 14:26:00,
2015-05-27 10:31:00,74.8,67.8,30.10,SSE,153,2.0,5.0,79,0.00,,,0.00,meteobridge,2015-05-27 14:31:00,
2015-05-27 10:36:00,75.0,67.6,30.10,SE,139,4.0,4.0,78,0.00,,,0.00,meteobridge,2015-05-27 14:36:00,
2015-05-27 10:41:00,75.4,67.3,30.11,ESE,123,4.9,8.0,76,0.00,,,0.00,meteobridge,2015-05-27 14:41:00,
2015-05-27 10:46:00,75.6,68.5,30.11,SE,145,0.9,4.0,79,0.00,,,0.00,meteobridge,2015-05-27 14:46:00,
2015-05-27 10:51:00,75.7,68.7,30.11,ESE,115,2.0,2.0,79,0.00,,,0.00,meteobridge,2015-05-27 14:51:00,
2015-05-27 10:57:00,75.6,67.8,30.10,ESE,117,0.9,3.0,77,0.00,,,0.00,meteobridge,2015-05-27 14:57:00,
2015-05-27 11:02:00,75.7,67.6,30.10,SSE,161,2.9,5.0,76,0.00,,,0.00,meteobridge,2015-05-27 15:02:00,
2015-05-27 11:07:00,75.7,68.0,30.10,SE,128,2.0,4.0,77,0.00,,,0.00,meteobridge,2015-05-27 15:07:00,
2015-05-27 11:12:00,75.9,67.8,30.10,SSE,151,2.0,3.0,76,0.00,,,0.00,meteobridge,2015-05-27 15:12:00,
2015-05-27 11:17:00,75.7,68.7,30.10,SSE,154,4.9,6.0,79,0.00,,,0.00,meteobridge,2015-05-27 15:17:00,
2015-05-27 11:22:00,75.9,68.2,30.10,SSE,158,0.9,3.0,77,0.00,,,0.00,meteobridge,2015-05-27 15:22:00,
2015-05-27 11:27:00,76.6,68.9,30.11,SSE,153,4.0,4.0,77,0.00,,,0.00,meteobridge,2015-05-27 15:27:00,
2015-05-27 11:37:00,76.6,68.5,30.11,SE,144,0.9,3.0,76,0.00,,,0.00,meteobridge,2015-05-27 15:37:00,
2015-05-27 11:42:00,76.8,68.4,30.11,SSE,156,2.0,5.0,75,0.00,,,0.00,meteobridge,2015-05-27 15:42:00,
2015-05-27 11:47:00,76.8,67.5,30.11,ESE,117,2.0,5.0,73,0.00,,,0.00,meteobridge,2015-05-27 15:47:00,
2015-05-27 11:52:00,77.2,68.2,30.11,SE,139,2.0,4.0,74,0.00,,,0.00,meteobridge,2015-05-27 15:52:00,
2015-05-27 11:57:00,77.2,68.7,30.11,SE,137,4.0,5.0,75,0.00,,,0.00,meteobridge,2015-05-27 15:57:00,
2015-05-27 12:02:00,77.0,68.9,30.11,SE,134,2.0,4.0,76,0.00,,,0.00,meteobridge,2015-05-27 16:02:00,
2015-05-27 12:07:00,77.4,68.9,30.10,SE,133,0.9,4.0,75,0.00,,,0.00,meteobridge,2015-05-27 16:07:00,
2015-05-27 12:12:00,77.5,67.5,30.10,SW,224,2.9,5.0,71,0.00,,,0.00,meteobridge,2015-05-27 16:12:00,
2015-05-27 12:17:00,78.1,69.1,30.10,SSE,165,0.9,3.0,74,0.00,,,0.00,meteobridge,2015-05-27 16:17:00,
2015-05-27 12:22:00,78.4,69.8,30.10,SSE,153,2.0,3.0,75,0.00,,,0.00,meteobridge,2015-05-27 16:22:00,
2015-05-27 12:27:00,78.3,68.0,30.10,SSE,152,2.0,4.0,71,0.00,,,0.00,meteobridge,2015-05-27 16:27:00,
2015-05-27 12:32:00,78.4,69.1,30.10,SSW,203,4.9,6.0,73,0.00,,,0.00,meteobridge,2015-05-27 16:32:00,
2015-05-27 12:37:00,78.3,68.5,30.10,SE,125,0.9,4.0,72,0.00,,,0.00,meteobridge,2015-05-27 16:37:00,
2015-05-27 12:42:00,78.6,68.4,30.10,West,281,4.0,4.0,71,0.00,,,0.00,meteobridge,2015-05-27 16:42:00,
2015-05-27 12:47:00,78.8,69.1,30.10,SE,127,4.0,7.0,72,0.00,,,0.00,meteobridge,2015-05-27 16:47:00,
2015-05-27 12:52:00,79.0,69.3,30.10,SSE,164,2.9,5.0,72,0.00,,,0.00,meteobridge,2015-05-27 16:52:00,
2015-05-27 12:57:00,79.5,70.2,30.10,East,96,2.0,5.0,73,0.00,,,0.00,meteobridge,2015-05-27 16:57:00,
2015-05-27 13:02:00,79.7,69.1,30.10,SE,128,2.9,5.0,70,0.00,,,0.00,meteobridge,2015-05-27 17:02:00,
2015-05-27 13:07:00,79.7,69.1,30.10,SE,143,2.9,4.0,70,0.00,,,0.00,meteobridge,2015-05-27 17:07:00,
2015-05-27 13:13:00,80.2,71.2,30.10,South,174,2.9,5.0,74,0.00,,,0.00,meteobridge,2015-05-27 17:13:00,
2015-05-27 13:17:00,80.2,69.1,30.10,SE,125,0.9,3.0,69,0.00,,,0.00,meteobridge,2015-05-27 17:17:00,
2015-05-27 13:23:00,80.2,69.1,30.10,SE,142,2.9,6.0,69,0.00,,,0.00,meteobridge,2015-05-27 17:23:00,
2015-05-27 13:28:00,80.4,68.9,30.09,SSE,157,2.0,4.0,68,0.00,,,0.00,meteobridge,2015-05-27 17:28:00,
2015-05-27 13:33:00,80.2,70.0,30.09,SSE,155,2.0,4.0,71,0.00,,,0.00,meteobridge,2015-05-27 17:33:00,
2015-05-27 13:38:00,80.6,68.5,30.09,SE,130,6.0,6.0,67,0.00,,,0.00,meteobridge,2015-05-27 17:38:00,
2015-05-27 13:43:00,80.1,68.2,30.09,SE,126,4.0,5.0,67,0.00,,,0.00,meteobridge,2015-05-27 17:43:00,
2015-05-27 13:48:00,79.3,67.5,30.09,SSE,150,4.0,7.0,67,0.00,,,0.00,meteobridge,2015-05-27 17:48:00,
2015-05-27 13:53:00,79.7,70.7,30.09,SE,140,2.9,3.0,74,0.00,,,0.00,meteobridge,2015-05-27 17:53:00,
2015-05-27 13:58:00,80.1,68.2,30.09,WSW,258,2.0,6.0,67,0.00,,,0.00,meteobridge,2015-05-27 17:58:00,
2015-05-27 14:03:00,80.1,68.9,30.09,SE,124,6.0,6.0,69,0.00,,,0.00,meteobridge,2015-05-27 18:03:00,
2015-05-27 14:08:00,80.2,68.7,30.09,SW,216,2.9,4.0,68,0.00,,,0.00,meteobridge,2015-05-27 18:08:00,
2015-05-27 14:13:00,79.9,68.7,30.09,SSE,163,2.0,5.0,69,0.00,,,0.00,meteobridge,2015-05-27 18:13:00,
2015-05-27 14:18:00,79.5,68.5,30.09,SE,130,0.0,5.0,69,0.00,,,0.00,meteobridge,2015-05-27 18:18:00,
2015-05-27 14:23:00,80.1,69.8,30.08,ESE,122,2.0,7.0,71,0.00,,,0.00,meteobridge,2015-05-27 18:23:00,
2015-05-27 14:28:00,80.2,67.5,30.08,SSE,152,2.0,6.0,65,0.00,,,0.00,meteobridge,2015-05-27 18:28:00,
2015-05-27 14:33:00,80.1,69.4,30.08,SE,133,4.0,4.0,70,0.00,,,0.00,meteobridge,2015-05-27 18:33:00,
2015-05-27 14:38:00,80.4,70.2,30.08,SSE,152,2.0,3.0,71,0.00,,,0.00,meteobridge,2015-05-27 18:38:00,
2015-05-27 14:43:00,80.4,68.5,30.08,SE,139,2.9,8.0,67,0.00,,,0.00,meteobridge,2015-05-27 18:43:00,
2015-05-27 14:48:00,80.2,67.8,30.08,SSW,196,4.0,5.0,66,0.00,,,0.00,meteobridge,2015-05-27 18:48:00,
2015-05-27 14:53:00,80.4,68.9,30.08,SE,137,4.0,6.0,68,0.00,,,0.00,meteobridge,2015-05-27 18:53:00,
2015-05-27 14:58:00,79.5,67.6,30.08,SE,134,4.0,8.0,67,0.00,,,0.00,meteobridge,2015-05-27 18:58:00,
2015-05-27 15:03:00,79.9,69.6,30.07,ESE,122,4.0,4.0,71,0.00,,,0.00,meteobridge,2015-05-27 19:03:00,
2015-05-27 15:08:00,80.2,69.1,30.07,South,172,2.9,4.0,69,0.00,,,0.00,meteobridge,2015-05-27 19:08:00,
2015-05-27 15:13:00,80.6,68.2,30.06,SE,129,4.0,6.0,66,0.00,,,0.00,meteobridge,2015-05-27 19:13:00,
2015-05-27 15:18:00,80.4,68.9,30.06,SSW,199,4.0,8.0,68,0.00,,,0.00,meteobridge,2015-05-27 19:18:00,
2015-05-27 15:23:00,80.8,70.2,30.06,SSE,149,2.9,4.0,70,0.00,,,0.00,meteobridge,2015-05-27 19:23:00,
2015-05-27 15:28:00,81.1,68.2,30.06,ESE,116,4.9,7.0,65,0.00,,,0.00,meteobridge,2015-05-27 19:28:00,
2015-05-27 15:33:00,80.8,68.4,30.06,SE,145,4.0,8.0,66,0.00,,,0.00,meteobridge,2015-05-27 19:33:00,
2015-05-27 15:38:00,80.8,68.4,30.06,SE,146,2.0,6.0,66,0.00,,,0.00,meteobridge,2015-05-27 19:38:00,
2015-05-27 15:43:00,81.0,68.5,30.07,SE,127,0.9,3.0,66,0.00,,,0.00,meteobridge,2015-05-27 19:43:00,
2015-05-27 15:48:00,80.6,68.2,30.06,SE,141,2.0,5.0,66,0.00,,,0.00,meteobridge,2015-05-27 19:48:00,
2015-05-27 15:53:00,80.2,68.4,30.06,ESE,123,4.9,5.0,67,0.00,,,0.00,meteobridge,2015-05-27 19:53:00,
2015-05-27 15:58:00,80.1,68.2,30.06,SE,144,0.9,3.0,67,0.00,,,0.00,meteobridge,2015-05-27 19:58:00,
2015-05-27 16:03:00,80.2,68.7,30.05,SE,131,6.0,6.0,68,0.00,,,0.00,meteobridge,2015-05-27 20:03:00,
2015-05-27 16:08:00,80.1,68.2,30.05,SSE,156,4.0,6.0,67,0.00,,,0.00,meteobridge,2015-05-27 20:08:00,
2015-05-27 16:13:00,80.1,68.5,30.04,South,174,2.0,6.0,68,0.00,,,0.00,meteobridge,2015-05-27 20:13:00,
2015-05-27 16:18:00,80.1,68.5,30.04,SE,131,2.9,4.0,68,0.00,,,0.00,meteobridge,2015-05-27 20:18:00,
2015-05-27 16:23:00,80.1,68.5,30.04,WSW,257,2.9,8.0,68,0.00,,,0.00,meteobridge,2015-05-27 20:23:00,
2015-05-27 16:28:00,80.1,68.9,30.04,South,180,2.0,6.0,69,0.00,,,0.00,meteobridge,2015-05-27 20:28:00,
2015-05-27 16:33:00,80.1,68.2,30.04,ESE,115,2.0,6.0,67,0.00,,,0.00,meteobridge,2015-05-27 20:33:00,
2015-05-27 16:38:00,80.2,68.7,30.04,SSE,153,2.0,6.0,68,0.00,,,0.00,meteobridge,2015-05-27 20:38:00,
2015-05-27 16:44:00,80.4,68.5,30.04,SE,139,4.0,6.0,67,0.00,,,0.00,meteobridge,2015-05-27 20:44:00,
2015-05-27 16:49:00,80.4,70.2,30.03,SE,140,2.9,5.0,71,0.00,,,0.00,meteobridge,2015-05-27 20:49:00,
2015-05-27 16:54:00,81.0,69.8,30.03,SE,140,2.0,4.0,69,0.00,,,0.00,meteobridge,2015-05-27 20:54:00,
2015-05-27 16:59:00,81.1,69.1,30.04,SE,143,2.9,6.0,67,0.00,,,0.00,meteobridge,2015-05-27 20:59:00,
2015-05-27 17:04:00,80.8,69.3,30.03,ESE,103,2.0,5.0,68,0.00,,,0.00,meteobridge,2015-05-27 21:04:00,
2015-05-27 17:09:00,80.4,68.5,30.04,SE,129,2.9,8.0,67,0.00,,,0.00,meteobridge,2015-05-27 21:09:00,
2015-05-27 17:14:00,79.9,67.1,30.04,South,186,2.0,4.0,65,0.00,,,0.00,meteobridge,2015-05-27 21:14:00,
2015-05-27 17:19:00,79.7,67.3,30.05,SSE,150,0.0,5.0,66,0.00,,,0.00,meteobridge,2015-05-27 21:19:00,
2015-05-27 17:24:00,79.5,66.2,30.05,South,175,0.9,6.0,64,0.00,,,0.00,meteobridge,2015-05-27 21:24:00,
2015-05-27 17:29:00,79.5,66.7,30.05,SE,127,4.0,6.0,65,0.00,,,0.00,meteobridge,2015-05-27 21:29:00,
2015-05-27 17:34:00,79.3,66.0,30.05,SSE,160,6.0,7.0,64,0.00,,,0.00,meteobridge,2015-05-27 21:34:00,
2015-05-27 17:39:00,79.2,66.4,30.05,SSE,149,0.9,4.0,65,0.00,,,0.00,meteobridge,2015-05-27 21:39:00,
2015-05-27 17:44:00,79.0,67.1,30.05,SE,140,2.0,6.0,67,0.00,,,0.00,meteobridge,2015-05-27 21:44:00,
2015-05-27 17:49:00,78.6,65.8,30.06,SSE,155,4.0,5.0,65,0.00,,,0.00,meteobridge,2015-05-27 21:49:00,
2015-05-27 17:54:00,78.6,66.4,30.06,SSE,154,0.0,5.0,66,0.00,,,0.00,meteobridge,2015-05-27 21:54:00,
2015-05-27 17:59:00,78.6,66.4,30.07,SSE,153,4.0,6.0,66,0.00,,,0.00,meteobridge,2015-05-27 21:59:00,
2015-05-27 18:04:00,78.3,65.5,30.07,SSW,209,0.9,8.0,65,0.00,,,0.00,meteobridge,2015-05-27 22:04:00,
2015-05-27 18:09:00,78.3,66.0,30.06,SSE,155,2.0,4.0,66,0.00,,,0.00,meteobridge,2015-05-27 22:09:00,
2015-05-27 18:14:00,78.1,66.2,30.07,SE,142,0.9,5.0,67,0.00,,,0.00,meteobridge,2015-05-27 22:14:00,
2015-05-27 18:19:00,77.9,66.0,30.07,SE,127,7.0,7.0,67,0.00,,,0.00,meteobridge,2015-05-27 22:19:00,
2015-05-27 18:24:00,77.7,66.4,30.07,SW,220,0.9,4.0,68,0.00,,,0.00,meteobridge,2015-05-27 22:24:00,
2015-05-27 18:29:00,77.4,66.0,30.07,SE,135,0.9,3.0,68,0.00,,,0.00,meteobridge,2015-05-27 22:29:00,
2015-05-27 18:34:00,77.2,65.3,30.07,SE,129,0.9,5.0,67,0.00,,,0.00,meteobridge,2015-05-27 22:34:00,
2015-05-27 18:39:00,77.0,65.1,30.07,South,178,2.9,4.0,67,0.00,,,0.00,meteobridge,2015-05-27 22:39:00,
2015-05-27 18:44:00,76.8,65.5,30.08,SSE,160,0.9,4.0,68,0.00,,,0.00,meteobridge,2015-05-27 22:44:00,
2015-05-27 18:49:00,76.6,64.9,30.07,SE,138,4.0,6.0,67,0.00,,,0.00,meteobridge,2015-05-27 22:49:00,
2015-05-27 18:54:00,76.5,64.8,30.08,SE,146,2.9,5.0,67,0.00,,,0.00,meteobridge,2015-05-27 22:54:00,
2015-05-27 18:59:00,76.3,64.9,30.08,South,181,0.9,4.0,68,0.00,,,0.00,meteobridge,2015-05-27 22:59:00,
2015-05-27 19:04:00,76.1,64.8,30.07,SE,146,2.9,6.0,68,0.00,,,0.00,meteobridge,2015-05-27 23:04:00,
2015-05-27 19:09:00,75.7,64.4,30.08,ENE,70,2.9,6.0,68,0.00,,,0.00,meteobridge,2015-05-27 23:09:00,
2015-05-27 19:14:00,75.6,63.9,30.08,ESE,121,2.9,6.0,67,0.00,,,0.00,meteobridge,2015-05-27 23:14:00,
2015-05-27 19:19:00,75.2,62.6,30.07,NE,39,4.0,9.0,65,0.00,,,0.00,meteobridge,2015-05-27 23:19:00,
2015-05-27 19:24:00,74.8,62.2,30.07,SE,126,4.9,10.0,65,0.00,,,0.00,meteobridge,2015-05-27 23:24:00,
2015-05-27 19:30:00,74.5,62.8,30.08,SSW,200,4.9,7.0,67,0.00,,,0.00,meteobridge,2015-05-27 23:30:00,
2015-05-27 19:35:00,73.9,62.2,30.07,SE,137,2.9,5.0,67,0.00,,,0.00,meteobridge,2015-05-27 23:35:00,
2015-05-27 19:40:00,73.8,62.6,30.07,SSE,167,6.9,7.0,68,0.00,,,0.00,meteobridge,2015-05-27 23:40:00,
2015-05-27 19:45:00,73.6,62.8,30.07,SW,219,2.0,4.0,69,0.00,,,0.00,meteobridge,2015-05-27 23:45:00,
2015-05-27 19:50:00,73.2,62.8,30.07,SSE,148,2.9,6.0,70,0.00,,,0.00,meteobridge,2015-05-27 23:50:00,
2015-05-27 19:55:00,72.9,62.4,30.07,SSW,206,2.0,8.0,70,0.00,,,0.00,meteobridge,2015-05-27 23:55:00,
2015-05-27 20:00:00,72.5,62.6,30.07,South,175,2.0,10.0,71,0.00,,,0.00,meteobridge,2015-05-28 00:00:00,
2015-05-27 20:05:00,72.1,62.6,30.07,South,179,2.9,8.0,72,0.00,,,0.00,meteobridge,2015-05-28 00:05:00,
2015-05-27 20:10:00,72.0,62.8,30.07,SSE,165,2.9,5.0,73,0.00,,,0.00,meteobridge,2015-05-28 00:10:00,
2015-05-27 20:15:00,71.6,62.4,30.08,SE,140,2.9,8.0,73,0.00,,,0.00,meteobridge,2015-05-28 00:15:00,
2015-05-27 20:20:00,71.2,62.6,30.08,South,182,4.0,4.0,74,0.00,,,0.00,meteobridge,2015-05-28 00:20:00,
2015-05-27 20:25:00,71.1,62.8,30.08,SSE,150,0.9,5.0,75,0.00,,,0.00,meteobridge,2015-05-28 00:25:00,
2015-05-27 20:30:00,70.9,62.6,30.08,East,86,2.0,5.0,75,0.00,,,0.00,meteobridge,2015-05-28 00:30:00,
2015-05-27 20:35:00,70.9,63.0,30.08,ESE,122,2.0,5.0,76,0.00,,,0.00,meteobridge,2015-05-28 00:35:00,
2015-05-27 20:40:00,70.5,63.0,30.09,SSE,155,2.0,6.0,77,0.00,,,0.00,meteobridge,2015-05-28 00:40:00,
2015-05-27 20:45:00,70.3,62.8,30.09,SW,231,2.9,5.0,77,0.00,,,0.00,meteobridge,2015-05-28 00:45:00,
2015-05-27 20:50:00,70.2,63.0,30.09,ESE,108,2.9,3.0,78,0.00,,,0.00,meteobridge,2015-05-28 00:50:00,
2015-05-27 20:55:00,69.8,63.0,30.08,SSE,154,2.0,5.0,79,0.00,,,0.00,meteobridge,2015-05-28 00:55:00,
2015-05-27 21:00:00,69.6,62.8,30.09,SSW,203,2.0,2.0,79,0.00,,,0.00,meteobridge,2015-05-28 01:00:00,
2015-05-27 21:05:00,69.6,63.1,30.09,SE,131,4.9,5.0,80,0.00,,,0.00,meteobridge,2015-05-28 01:05:00,
2015-05-27 21:10:00,69.4,63.0,30.09,SE,129,0.9,3.0,80,0.00,,,0.00,meteobridge,2015-05-28 01:10:00,
2015-05-27 21:15:00,69.3,63.1,30.09,SSE,150,0.9,3.0,81,0.00,,,0.00,meteobridge,2015-05-28 01:15:00,
2015-05-27 21:20:00,69.1,63.3,30.08,SSE,151,0.0,3.0,82,0.00,,,0.00,meteobridge,2015-05-28 01:20:00,
2015-05-27 21:25:00,68.9,63.1,30.08,SE,131,2.0,4.0,82,0.00,,,0.00,meteobridge,2015-05-28 01:25:00,
2015-05-27 21:30:00,68.7,63.3,30.08,SE,146,0.9,4.0,83,0.00,,,0.00,meteobridge,2015-05-28 01:30:00,
2015-05-27 21:35:00,68.5,63.1,30.09,South,169,2.9,4.0,83,0.00,,,0.00,meteobridge,2015-05-28 01:35:00,
2015-05-27 21:40:00,68.5,63.1,30.09,South,187,0.9,4.0,83,0.00,,,0.00,meteobridge,2015-05-28 01:40:00,
2015-05-27 21:45:00,68.4,63.3,30.09,SE,129,2.0,4.0,84,0.00,,,0.00,meteobridge,2015-05-28 01:45:00,
2015-05-27 21:50:00,68.4,63.3,30.09,West,267,2.0,4.0,84,0.00,,,0.00,meteobridge,2015-05-28 01:50:00,
2015-05-27 21:56:00,68.2,63.1,30.10,SSE,154,0.9,2.0,84,0.00,,,0.00,meteobridge,2015-05-28 01:56:00,
2015-05-27 22:01:00,68.2,63.5,30.10,SE,146,0.9,2.0,85,0.00,,,0.00,meteobridge,2015-05-28 02:01:00,
2015-05-27 22:06:00,68.0,63.3,30.11,SSW,209,0.9,4.0,85,0.00,,,0.00,meteobridge,2015-05-28 02:06:00,
2015-05-27 22:11:00,67.8,63.1,30.11,SE,146,0.9,2.0,85,0.00,,,0.00,meteobridge,2015-05-28 02:11:00,